Vorticity
nan nan nan nan nan nan nan nan nan nan nan nan nan nan nan nan nan nan nan nan nan nan nan nan nan nan nan nan nan nan nan nan nan nan nan nan nan nan nan nan nan nan nan nan nan nan nan nan nan nan nan nan nan nan
nan 9 7 8 10 8 8 11 8 6 7 8 8 7 8 7 10 22 17 4 13 9 4 7 11 11 7 7 12 8 13 11 13 18 13 9 9 8 16 20 11 9 14 13 11 14 19 17 19 11 13 11 9 nan
nan 9 7 8 9 7 11 12 7 7 7 7 7 7 8 8 10 16 14 8 13 14 13 19 16 13 12 7 5 7 5 9 8 10 14 14 12 10 16 16 11 15 11 7 13 19 8 5 6 6 12 13 13 nan
nan 9 8 8 10 10 8 6 7 8 8 8 8 7 8 8 10 14 12 11 15 13 20 13 11 15 13 14 12 5 2 8 12 10 8 7 5 15 15 8 8 14 13 17 15 8 1 5 9 6 8 11 12 nan
nan 10 8 10 10 8 7 7 8 9 8 8 8 8 8 9 14 19 17 12 12 9 10 10 18 16 12 12 12 12 8 8 13 13 12 9 7 10 11 9 13 5 13 17 9 6 7 6 5 8 11 13 12 nan
nan 9 9 10 9 9 8 8 9 9 8 8 8 8 8 8 18 25 18 4 5 16 14 13 16 13 12 14 15 12 9 8 9 10 11 12 10 12 12 5 10 13 19 10 8 5 3 15 13 6 5 6 15 nan
nan 8 11 12 8 8 9 10 8 8 8 8 8 8 9 12 13 11 10 4 8 16 15 11 10 14 12 10 11 11 9 9 12 11 7 8 14 12 9 7 2 10 8 6 10 9 13 10 8 15 12 14 12 nan
nan 11 12 10 9 8 9 8 8 8 8 8 8 8 13 19 20 15 16 10 6 13 10 14 17 12 10 6 13 10 11 10 10 11 13 12 9 8 9 13 7 10 4 6 4 8 9 8 9 0 14 21 9 nan
nan 12 11 10 9 8 9 8 8 8 8 8 11 21 23 19 17 15 15 13 9 8 14 15 10 15 10 5 9 15 15 12 13 13 9 9 13 9 13 11 10 7 12 13 10 8 8 11 13 9 6 8 20 nan
nan 11 10 10 9 9 9 8 7 8 7 16 22 19 15 15 12 10 8 11 13 12 10 8 8 13 14 15 8 11 11 8 12 16 17 14 10 15 15 19 14 11 8 9 9 6 8 13 17 9 13 11 4 nan
nan 9 10 10 9 10 10 7 6 12 20 15 11 7 14 11 6 8 11 12 10 12 12 7 9 8 18 14 8 13 13 13 12 14 9 14 10 18 25 12 14 11 8 10 10 8 9 13 8 10 13 4 7 nan
nan 10 10 11 11 11 9 7 8 5 5 11 15 15 11 8 11 10 14 13 12 10 13 10 14 15 9 11 9 15 15 8 11 12 12 15 10 8 15 6 8 8 9 8 15 18 10 10 5 9 14 16 9 nan
nan 11 11 11 13 11 8 7 4 5 14 17 12 13 12 9 10 17 13 12 11 10 10 13 11 14 11 10 14 10 9 10 13 11 9 14 14 8 5 5 7 8 6 6 7 7 18 20 11 12 6 10 19 nan
nan 11 11 12 11 11 8 7 8 12 17 14 11 11 12 9 7 11 14 11 12 13 8 16 10 6 13 13 11 9 9 14 13 12 13 12 5 6 8 8 7 10 8 10 11 6 7 17 18 10 13 12 14 nan
nan 12 9 13 12 10 8 7 9 11 12 14 10 13 11 6 13 11 9 11 11 13 11 11 11 9 11 11 10 13 14 12 10 14 14 11 7 6 8 10 9 10 11 9 10 13 9 7 13 14 12 12 13 nan
nan 4 17 18 11 8 7 8 10 9 10 11 11 10 13 15 12 14 12 12 9 7 12 12 10 15 11 10 12 11 11 12 13 11 9 8 7 7 9 11 11 12 15 13 15 13 9 10 13 12 15 16 23 nan
nan 12 25 9 8 7 5 9 12 8 11 11 14 11 10 13 12 14 14 8 15 11 13 15 10 10 12 13 10 11 18 11 8 11 8 6 8 11 12 13 15 17 16 14 15 16 13 8 12 17 17 19 25 nan
nan 26 13 6 2 3 10 10 10 15 12 8 10 14 11 12 11 13 11 9 12 15 11 9 14 14 11 11 9 9 10 11 10 9 9 10 13 14 13 13 17 19 14 16 13 14 18 20 17 19 19 12 12 nan
nan 18 13 2 -7 7 15 12 10 14 13 12 12 14 10 8 14 15 8 13 10 12 12 10 11 13 10 9 8 10 9 11 11 11 12 14 15 12 14 15 17 18 20 20 18 16 16 18 18 15 9 13 12 nan
nan 14 9 4 6 11 12 12 12 10 12 14 13 14 15 12 9 8 9 8 12 17 15 12 10 11 16 15 9 7 9 13 14 13 12 14 14 14 16 16 16 15 20 18 14 15 14 11 11 14 14 13 13 nan
nan 5 9 9 13 10 10 13 11 12 10 12 11 6 13 15 10 8 8 12 17 14 11 9 8 7 11 11 12 13 13 13 13 13 11 12 13 15 15 15 13 13 13 12 11 10 13 15 13 13 14 12 10 nan
nan 11 4 11 8 14 11 13 12 9 16 15 12 10 10 10 11 11 12 15 14 9 8 9 8 9 10 10 14 13 13 13 15 15 15 15 14 13 12 13 13 13 12 13 13 13 12 13 13 13 11 12 12 nan
nan 5 11 9 11 13 16 11 12 12 14 12 11 14 12 11 12 11 15 12 12 12 10 10 13 14 14 13 14 14 13 13 13 14 17 16 13 11 14 15 12 11 11 11 13 13 11 12 14 13 11 10 11 nan
nan 8 18 17 10 8 13 13 9 10 12 13 12 12 12 12 12 13 13 12 12 12 14 15 15 16 16 14 15 14 11 11 11 12 14 14 10 9 14 16 14 12 11 12 13 11 10 11 7 10 15 14 11 nan
nan 14 14 10 14 15 11 12 10 11 13 12 12 13 11 10 11 12 13 11 11 14 17 15 13 15 16 14 13 11 11 12 11 11 14 12 6 11 12 11 11 11 12 12 13 12 14 13 15 15 12 15 14 nan
nan 15 11 14 14 13 14 12 11 11 13 12 12 13 11 11 11 12 12 13 13 15 15 14 13 10 11 13 10 10 11 13 14 12 11 9 14 17 13 12 14 12 10 11 10 8 10 14 19 15 10 10 14 nan
nan 11 8 13 14 13 12 12 11 12 15 15 12 12 11 11 12 13 13 12 11 12 14 14 11 12 11 10 11 16 12 11 11 13 18 16 12 10 13 15 20 25 17 10 7 13 14 12 12 11 7 6 11 nan
nan 13 13 11 10 9 10 14 15 14 14 14 10 11 15 12 11 12 11 12 12 11 14 16 13 12 13 11 12 13 13 16 10 9 13 13 13 15 12 10 8 13 11 18 25 16 12 10 10 11 12 10 8 nan
nan 13 12 11 12 13 12 12 15 17 19 17 12 13 13 13 13 12 13 12 11 14 14 11 13 15 16 15 14 13 12 12 17 15 11 11 12 12 12 11 8 6 8 5 8 11 10 8 12 16 14 12 11 nan
nan 11 10 14 14 15 17 16 13 17 18 15 15 15 15 16 14 12 11 11 12 13 10 9 14 17 11 11 13 15 17 14 14 12 10 13 12 12 13 12 12 10 11 10 7 5 11 10 11 12 9 11 12 nan
nan 13 11 15 20 19 15 15 16 12 10 11 14 14 14 15 17 15 12 14 16 16 12 10 12 14 16 14 11 10 11 10 10 12 20 17 9 11 13 15 14 10 7 10 15 18 14 9 7 12 12 9 13 nan
nan 16 18 14 13 11 10 11 14 13 10 11 13 11 10 12 14 16 16 15 13 7 14 20 13 12 12 13 15 12 15 12 8 6 17 23 14 13 18 14 9 10 13 13 15 17 10 10 11 13 15 12 7 nan
nan nan nan nan nan nan nan nan nan nan nan nan nan nan nan nan nan nan nan nan nan nan nan nan nan nan nan nan nan nan nan nan nan nan nan nan nan nan nan nan nan nan nan nan nan nan nan nan nan nan nan nan nan nan
CAPE
28 16 8 0 6 0 0 2 0 0 0 15 1 2 5 3 0 0 0 0 0 0 0 0 0 0 0 0 0 2 19 4 0 0 0 0 0 1 7 117 105 75 17 0 19 0 0 0 300 1121 2351 2475 2243 2066
41 17 8 0 1 0 4 9 0 0 0 7 10 5 3 4 0 0 0 0 0 0 0 0 0 0 0 0 0 0 3 2 25 0 0 0 0 0 388 39 91 62 287 153 112 50 1821 1807 2315 2413 2349 2377 2325 2316
47 32 3 0 0 5 0 0 0 1 1 0 2 4 2 2 1 0 0 0 0 0 0 0 0 0 0 0 0 0 2 6 71 27 10 39 2 5 92 61 127 92 252 328 332 612 1315 1646 1638 1606 1966 2098 1997 1910
48 36 6 3 5 11 0 0 0 5 2 1 0 2 3 2 2 0 0 0 0 0 0 2 0 0 0 0 0 0 0 0 0 0 0 0 55 101 99 109 88 239 360 340 316 990 950 757 1153 1201 1515 1903 2145 2195
50 44 17 7 8 14 9 0 2 1 1 0 0 0 1 1 1 0 0 0 0 0 1 4 0 0 0 0 0 0 0 0 0 0 0 0 0 0 0 2 9 336 297 645 899 686 1079 1030 1109 998 1164 1198 1484 1700
42 23 15 13 10 16 11 1 1 0 1 0 0 0 0 0 0 0 14 5 0 0 0 20 22 0 0 0 0 0 0 0 0 0 1 3 1 22 11 8 38 92 192 256 191 98 90 835 561 695 682 1000 1341 1332
17 15 14 26 12 15 8 2 0 0 0 0 0 0 0 0 1 1 1 0 0 0 0 5 34 0 0 0 0 0 0 0 0 0 0 0 22 14 1 15 145 97 93 38 12 17 196 384 295 276 342 601 815 895
19 20 17 29 20 17 14 1 0 0 0 0 0 0 0 0 0 3 0 0 0 0 0 32 109 44 0 2 13 1 17 1 0 0 0 4 2 19 7 10 0 20 31 37 3 0 25 34 166 122 131 260 916 925
15 26 21 23 28 22 13 4 0 0 0 0 0 0 0 0 12 10 0 0 0 0 9 0 119 146 14 39 103 70 30 35 9 8 0 3 26 26 26 79 0 2 32 25 2 0 2 5 34 121 105 191 375 735
20 29 33 24 21 18 17 4 0 0 0 0 0 6 40 17 0 0 1 16 5 0 0 0 61 231 178 127 182 146 176 61 47 56 41 45 23 61 39 37 49 77 49 29 22 11 25 64 153 199 68 92 72 124
16 32 36 17 17 16 16 1 0 0 0 1 25 61 42 0 4 24 9 8 14 9 0 0 45 154 148 103 344 250 306 259 154 93 67 113 67 160 100 139 63 9 11 0 7 12 21 20 40 88 126 79 34 248
19 24 44 25 28 23 8 0 0 0 14 5 0 1 25 27 26 27 13 22 25 15 60 25 105 72 163 217 404 376 254 165 198 240 216 91 328 379 205 123 76 67 39 41 49 51 49 52 45 51 67 59 72 40
52 43 50 47 37 18 1 0 0 0 0 19 32 55 20 38 4 4 3 44 32 38 125 184 251 186 219 161 289 317 197 265 134 154 79 451 404 242 173 110 42 12 0 3 31 40 86 67 67 101 89 113 160 292
49 58 56 49 42 15 0 0 0 0 0 61 46 4 26 12 17 51 47 105 155 222 215 89 150 111 340 320 333 206 174 154 197 63 111 429 213 67 70 74 29 11 6 1 5 30 83 69 120 148 154 146 166 269
58 66 60 44 25 6 0 0 0 0 7 60 26 0 0 48 73 34 27 35 36 21 50 98 56 41 111 152 163 187 142 142 125 214 239 154 76 25 30 40 28 27 13 16 6 0 28 121 270 323 456 390 416 401
78 76 30 31 13 0 0 0 0 0 44 21 22 22 60 46 28 33 31 105 61 29 27 25 46 71 71 34 35 66 78 112 192 220 4 10 31 47 44 18 14 23 26 18 15 14 37 200 427 624 623 536 746 264
26 7 22 6 0 0 0 0 2 22 43 9 18 24 57 47 56 20 66 110 166 40 61 32 50 46 67 40 38 76 163 52 11 14 9 36 14 3 4 18 26 19 21 22 24 8 132 293 552 861 631 321 715 604
64 3 0 0 0 0 0 0 40 36 17 20 43 41 34 40 238 223 61 27 15 28 14 22 28 62 57 46 42 87 16 5 15 47 24 4 0 1 18 20 25 13 10 27 23 87 387 723 658 268 205 109 28 35
17 2 0 0 0 24 11 31 39 42 21 35 31 27 46 123 132 109 21 20 19 16 15 17 13 24 23 46 58 37 17 18 17 12 17 10 12 6 11 9 18 38 28 29 89 326 354 367 391 321 190 74 42 19
0 0 0 0 0 49 46 43 36 75 44 79 63 45 11 84 42 27 19 21 17 19 5 19 27 68 98 34 12 17 6 14 16 5 1 15 20 16 15 11 10 3 5 48 15 13 38 25 6 6 14 10 10 8
0 0 0 0 24 51 43 23 17 41 39 46 68 49 35 36 37 35 15 6 5 10 10 28 44 42 68 56 7 1 7 6 30 25 8 16 22 7 3 2 5 1 3 6 3 2 2 19 46 44 11 11 6 2
12 0 48 12 50 22 37 38 58 53 36 41 38 42 43 46 45 24 3 7 21 36 38 20 16 2 1 15 4 4 5 25 17 11 6 9 11 5 4 2 0 8 17 16 8 4 3 3 3 9 11 11 14 5
0 13 58 27 14 6 3 24 31 30 46 35 23 19 17 21 9 1 11 11 7 0 0 1 1 2 2 0 4 23 21 12 8 19 47 14 6 12 2 72 32 4 7 4 1 1 0 0 0 0 0 0 0 0
0 25 19 20 2 1 32 24 28 43 8 3 22 26 10 18 6 6 4 3 0 0 2 1 2 6 23 25 37 28 18 5 0 0 13 17 10 1 35 70 52 38 2 0 0 0 0 0 0 0 4 32 44 29
20 1 1 0 24 26 19 10 4 4 4 17 13 17 14 6 7 3 0 0 1 2 31 38 35 32 31 35 20 17 21 13 4 43 78 9 2 16 51 28 3 12 3 3 29 47 52 47 72 38 7 5 8 9
7 4 31 27 33 26 18 18 15 5 8 15 11 12 13 12 5 2 1 1 2 2 42 34 28 35 32 13 7 17 7 12 38 43 21 32 44 67 58 36 49 64 56 66 71 22 23 7 0 0 0 0 0 13
28 21 29 25 15 9 5 3 4 5 10 10 12 11 12 6 2 1 2 3 3 37 42 25 15 10 21 65 82 133 75 45 54 9 38 48 25 28 7 8 16 61 70 48 32 4 0 0 1 4 14 21 19 19
2 3 8 5 3 3 3 8 8 18 17 22 9 17 8 5 3 0 2 1 14 18 50 28 12 66 43 4 12 33 26 21 23 4 0 0 0 0 0 0 0 0 0 0 2 6 9 14 16 18 16 15 12 5
3 1 4 3 2 4 11 32 12 13 12 18 13 8 2 0 0 1 1 1 7 14 31 38 58 50 42 49 50 34 34 16 0 3 4 4 3 0 0 0 0 0 0 0 0 0 0 0 0 11 10 9 10 11
3 2 3 27 34 37 30 20 13 12 10 2 0 0 1 6 9 1 4 9 35 40 25 30 40 53 34 23 14 4 10 13 13 10 23 18 18 15 15 15 15 12 8 2 0 0 0 0 0 4 5 13 16 9
33 5 29 36 36 37 37 28 1 6 0 0 0 0 0 1 16 31 46 67 56 51 43 25 9 0 0 1 6 8 5 2 2 4 21 26 25 21 10 1 5 11 13 15 18 25 9 9 23 11 11 5 0 0
35 32 36 16 19 15 7 7 7 8 8 5 1 0 7 9 5 6 8 9 6 2 0 2 11 10 2 1 0 0 1 8 14 1 1 14 26 26 26 31 24 12 12 13 11 17 11 0 8 6 4 0 1 0
42 32 27 33 35 11 5 9 6 5 1 2 2 1 7 2 0 0 0 7 4 0 0 2 2 2 1 3 0 0 0 0 0 0 0 0 0 0 0 0 0 0 0 2 3 3 0 0 0 0 0 0 0 0